Weather History for Houma, LA

Change the Weather History Date:

Monday, February 18, 2013

  Actual Average Record
Temperature  
Mean Temperature 53 °F -  
Max Temperature 64 °F 65 °F 83 °F (1933)
Min Temperature 42 °F 47 °F 30 °F (1980)
Degree Days  
Heating Degree Days 12    
Growing Degree Days 3 (Base 50)    
Moisture  
Dew Point 53 °F    
Average Humidity 90    
Maximum Humidity 100    
Minimum Humidity 73    
Precipitation  
Precipitation 0.00 in - - ()
Sea Level Pressure  
Sea Level Pressure 30.11 in    
Wind  
Wind Speed 8 mph (SE)    
Max Wind Speed 18 mph    
Max Gust Speed 26 mph    
Visibility 7 miles    
Events Rain    
Averages and records for this station are not official NWS values.
T = Trace of Precipitation, MM = Missing Value Source: NWS Daily Summary

Daily Weather History Graph

Daily Weather History Graph

Search for Another Location

Airport:

Trip Planner

Search our weather history database for the weather conditions in past years. The results will help you decide how hot, cold, wet, or windy it might be!

Date:

Astronomy

Feb. 18, 2013 Rise Set
Actual Time 6:39 AM CST 5:54 PM CST
Civil Twilight 6:14 AM CST 6:18 PM CST
Nautical Twilight 5:46 AM CST 6:46 PM CST
Astronomical Twilight 5:19 AM CST 7:14 PM CST
Moon 11:53 AM CST 1:06 AM CST
Length of Visible Light 12h 03m
Length of Day
11h 15m
First Quarter, 58% of the Moon is Illuminated
Feb 18
First Quarter
Feb 25
Full
Mar 4
Last Quarter
Mar 11
New
Mar 19
First Quarter

Hourly Weather History & Observations

Time (CST) Temp. Windchill Dew Point Humidity Pressure Visibility Wind Dir Wind Speed Gust Speed Precip Events Conditions
12:15 AM 43.7 °F 41.1 °F 40.1 °F 87% 30.23 in 7.0 mi East 4.6 mph - N/A   Clear
12:35 AM 43.9 °F 41.3 °F 40.8 °F 89% 30.23 in 7.0 mi East 4.6 mph - N/A   Clear
12:55 AM 43.0 °F 41.3 °F 40.6 °F 91% 30.23 in 10.0 mi East 3.5 mph - N/A   Clear
1:15 AM 42.3 °F 39.4 °F 40.3 °F 93% 30.23 in 7.0 mi East 4.6 mph - N/A   Clear
1:35 AM 42.8 °F 40.1 °F 41.0 °F 93% 30.22 in 7.0 mi East 4.6 mph - N/A   Clear
1:55 AM 42.4 °F 39.6 °F 41.4 °F 96% 30.21 in 7.0 mi East 4.6 mph - N/A   Clear
2:15 AM 43.3 °F 39.9 °F 42.6 °F 97% 30.20 in 7.0 mi East 5.8 mph - N/A   Clear
2:35 AM 45.1 °F 42.0 °F 43.5 °F 94% 30.19 in 7.0 mi East 5.8 mph - N/A   Clear
2:55 AM 44.6 °F 41.4 °F 43.2 °F 95% 30.18 in 7.0 mi East 5.8 mph - N/A   Clear
3:15 AM 44.6 °F 42.2 °F 43.0 °F 94% 30.18 in 7.0 mi East 4.6 mph - N/A   Clear
3:35 AM 44.4 °F 42.9 °F 43.5 °F 97% 30.18 in 7.0 mi East 3.5 mph - N/A   Clear
4:15 AM 44.4 °F 42.9 °F 43.9 °F 98% 30.18 in 7.0 mi East 3.5 mph - N/A   Scattered Clouds
4:35 AM 44.1 °F 40.8 °F 43.9 °F 99% 30.17 in 7.0 mi East 5.8 mph - N/A   Scattered Clouds
4:55 AM 44.6 °F 43.1 °F 44.1 °F 98% 30.17 in 7.0 mi East 3.5 mph - N/A   Scattered Clouds
5:48 AM 46.4 °F 43.5 °F 46.4 °F 100% 30.17 in 7.0 mi SSE 5.8 mph - N/A   Clear
6:50 AM 48.2 °F - 46.4 °F 93% 30.17 in 7.0 mi ESE 4.6 mph - N/A   Partly Cloudy
7:50 AM 55.4 °F - 53.6 °F 94% 30.18 in 7.0 mi ESE 4.6 mph - N/A   Mostly Cloudy
8:50 AM 57.2 °F - 53.6 °F 88% 30.19 in 7.0 mi East 4.6 mph - N/A   Mostly Cloudy
9:50 AM 60.8 °F - 55.4 °F 82% 30.18 in 7.0 mi East 4.6 mph - N/A   Mostly Cloudy
10:50 AM 64.4 °F - 57.2 °F 77% 30.17 in 7.0 mi ESE 16.1 mph - N/A   Mostly Cloudy
12:48 PM 64.4 °F - 55.4 °F 73% 30.12 in 7.0 mi SE 13.8 mph 21.9 mph N/A   Mostly Cloudy
1:50 PM 62.6 °F - 55.4 °F 77% 30.11 in 6.0 mi South 16.1 mph - N/A Rain Light Rain
2:51 PM 62.6 °F - 57.2 °F 82% 30.06 in 6.0 mi SE 18.4 mph - N/A Rain Light Rain
3:51 PM 62.6 °F - 57.2 °F 82% 30.05 in 6.0 mi SE 15.0 mph - N/A Rain Light Rain
4:51 PM 62.6 °F - 57.2 °F 82% 30.03 in 6.0 mi SSE 15.0 mph - N/A Rain Light Rain
5:55 PM 62.6 °F - 57.2 °F 82% 30.03 in 6.0 mi SE 9.2 mph - N/A   Mostly Cloudy
6:15 PM 63.0 °F - 58.5 °F 85% 30.03 in 7.0 mi SSE 9.2 mph - N/A   Overcast
6:48 PM 62.6 °F - 60.8 °F 94% 30.04 in 6.0 mi SSE 12.7 mph - N/A   Overcast
6:55 PM 62.6 °F - 59.5 °F 90% 30.03 in 7.0 mi SSE 9.2 mph - N/A   Overcast
7:15 PM 62.6 °F - 59.2 °F 89% 30.02 in 7.0 mi SSE 10.4 mph - N/A   Overcast
7:35 PM 63.0 °F - 59.4 °F 88% 30.02 in 7.0 mi SSE 10.4 mph - N/A   Overcast
8:15 PM 63.3 °F - 59.5 °F 87% 30.02 in 7.0 mi SSE 11.5 mph 18.4 mph N/A   Overcast
8:35 PM 64.0 °F - 59.9 °F 86% 30.02 in 7.0 mi SSE 13.8 mph 17.3 mph N/A   Overcast
8:55 PM 64.6 °F - 59.9 °F 85% 30.02 in 7.0 mi SSE 17.3 mph 23.0 mph N/A   Overcast
9:15 PM 63.0 °F - 59.4 °F 88% 30.02 in 10.0 mi SSE 15.0 mph 26.5 mph N/A   Overcast
9:35 PM 63.5 °F - 60.8 °F 91% 30.02 in 7.0 mi SSE 17.3 mph 25.3 mph N/A   Overcast
9:55 PM 62.8 °F - 60.8 °F 93% 30.02 in 7.0 mi SSE 16.1 mph 24.2 mph N/A   Overcast
10:15 PM 62.6 °F - 60.8 °F 94% 30.02 in 7.0 mi SSE 12.7 mph 23.0 mph N/A   Overcast
10:35 PM 62.8 °F - 61.0 °F 94% 30.01 in 7.0 mi SSE 13.8 mph 18.4 mph N/A   Overcast
10:55 PM 63.5 °F - 60.8 °F 91% 30.01 in 7.0 mi SSE 11.5 mph 18.4 mph N/A   Overcast
11:15 PM 63.9 °F - 60.8 °F 90% 30.01 in 7.0 mi SSE 13.8 mph 19.6 mph N/A   Overcast
11:35 PM 64.4 °F - 61.3 °F 90% 30.01 in 7.0 mi South 15.0 mph 20.7 mph N/A   Overcast